www.pogodaiklimat.ru

Архив погоды в Лондоне (Великобритания)

Время
(UTC), дата
19 12.04
20 12.04
21 12.04
22 12.04
23 12.04
00 13.04
01 13.04
02 13.04
03 13.04
04 13.04
05 13.04
06 13.04
07 13.04
08 13.04
09 13.04
10 13.04
11 13.04
12 13.04
13 13.04
14 13.04
15 13.04
16 13.04
17 13.04
18 13.04
19 13.04
20 13.04
21 13.04
22 13.04
23 13.04
00 14.04
01 14.04
02 14.04
03 14.04
04 14.04
05 14.04
06 14.04
07 14.04
08 14.04
09 14.04
10 14.04
11 14.04
12 14.04
13 14.04
14 14.04
15 14.04
16 14.04
17 14.04
18 14.04
19 14.04
20 14.04
21 14.04
22 14.04
23 14.04
00 15.04
01 15.04
02 15.04
03 15.04
04 15.04
05 15.04
06 15.04
07 15.04
08 15.04
09 15.04
10 15.04
11 15.04
12 15.04
13 15.04
14 15.04
15 15.04
16 15.04
17 15.04
18 15.04
19 15.04
20 15.04
21 15.04
22 15.04
23 15.04
00 16.04
01 16.04
02 16.04
03 16.04
04 16.04
05 16.04
06 16.04
07 16.04
08 16.04
09 16.04
10 16.04
11 16.04
12 16.04
13 16.04
14 16.04
15 16.04
16 16.04
17 16.04
18 16.04
19 16.04
20 16.04
21 16.04
22 16.04
23 16.04
00 17.04
01 17.04
02 17.04
03 17.04
04 17.04
05 17.04
06 17.04
07 17.04
08 17.04
09 17.04
10 17.04
11 17.04
12 17.04
13 17.04
14 17.04
15 17.04
16 17.04
17 17.04
18 17.04
19 17.04
20 17.04
21 17.04
22 17.04
23 17.04
00 18.04
01 18.04
02 18.04
03 18.04
04 18.04
05 18.04
06 18.04
07 18.04
08 18.04
09 18.04
10 18.04
11 18.04
12 18.04
13 18.04
14 18.04
15 18.04
16 18.04
17 18.04
18 18.04
19 18.04
20 18.04
21 18.04
22 18.04
23 18.04
00 19.04
01 19.04
02 19.04
03 19.04
04 19.04
05 19.04
06 19.04
07 19.04
08 19.04
09 19.04
10 19.04
11 19.04
12 19.04
15 19.04
16 19.04
17 19.04
18 19.04
Ветер
(напр.,м/с)
Видим. Явления Облачность Т
(С)
Тd
(С)
f
(%)
Тe
(С)
Тes
(С)
Комфортность P
(гПа)
Po
(гПа)
Тmin
(С)
Tmax
(С)
R
(мм)
R24
(мм)
S
(см)
ЮЗ 6-8 {10} н/о 10/10 +15.5 +9.3 67 +14 +14 тепло 1027.0 1024.0
ЮЗ 5-8 {10} н/о 10/10 +14.8 +9.4 70 +13 +13 тепло 1027.0 1024.0
ЮЗ 6-8 {9} 50 км 10/10 +14.5 +10.2 75 +13 +13 тепло 1027.3 1024.3 +21.0
ЮЗ 5-8 {9} н/о 10/10 +13.9 +10.3 79 +12 +12 тепло 1027.3 1024.3
Ю 6-8 {8} н/о 10/10 +13.4 +10.2 81 +11 +11 тепло 1027.0 1023.9
Ю 7-8 {10} 55 км 10/10 +13.4 +10.3 81 +11 +11 тепло 1026.1 1023.0
ЮЗ 4-6 {9} н/о 10/10 +13.0 +10.4 84 +11 +11 тепло 1025.8 1022.7
ЮЗ 3-4 {5} н/о 4/4 +12.3 +10.2 87 +11 +11 тепло 1025.5 1022.4
ЮЗ 2-2 {4} 35 км 3/3 +11.3 +9.5 89 +10 +10 тепло 1025.3 1022.2
ЮЗ 3-4 {4} н/о 10/10 200 м +11.5 +10.4 93 +10 +10 тепло 1024.7 1021.6
ЮЗ 3-4 {5} н/о н/о +11.4 +10.3 93 +10 +10 тепло 1024.6 1021.5
Ю 4-5 {5} 23 км 10/10 300 м +12.1 +10.8 92 +10 +10 тепло 1024.3 1021.3 +10.9 +16.4
Ю 3-5 {5} н/о 10/10 300 м +12.9 +11.4 91 +11 +11 тепло 1023.9 1020.9
Ю 5-7 {8} н/о 10/10 300 м +14.2 +11.5 84 +12 +12 тепло 1023.3 1020.2
ЮЗ 7-9 {11} 35 км 9/9 400 м +15.2 +11.7 80 +13 +14 тепло 1022.9 1019.9 +15.2
Ю 6-8 {10} н/о ясно +16.4 +11.7 74 +15 +18 тепло 1022.4 1019.4
Ю 7-9 {10} н/о ясно +17.9 +11.8 67 +17 +20 тепло 1022.1 1019.1
ЮЗ 6-8 {10} 60 км ясно +19.1 +11.3 61 +20 +25 тепло 1021.4 1018.4
ЮЗ 7-10 {11} н/о 1/1 +19.8 +8.3 47 +20 +23 тепло 1020.7 1017.7
ЮЗ 7-9 {10} н/о ясно +20.5 +8.9 47 +21 +24 комфорт 1020.3 1017.4
ЮЗ 7-10 {12} 65 км ясно +19.8 +7.2 44 +20 +22 тепло 1019.8 1016.8
ЮЗ 7-10 {11} н/о ясно +19.1 +9.1 52 +19 +20 тепло 1019.4 1016.5
З 8-10 {10} н/о 10/10 1000 м +18.6 +9.1 54 +18 +19 тепло 1019.8 1016.8
З 7-11 {12} >70 км 10/10 1020 м +17.4 +9.8 61 +16 +16 тепло 1020.2 1017.2 +20.8
З 7-10 {12} н/о ясно +15.0 +9.5 70 +13 +13 тепло 1020.9 1017.8
З 6-8 {10} н/о ясно +13.5 +9.3 76 +11 +11 тепло 1021.7 1018.6
З 8-12 {12} 60 км ясно +12.8 +7.5 70 +10 +10 тепло 1022.4 1019.4 +20.8
З 6-9 {10} н/о 5/5 +12.0 +7.7 75 +9 +9 тепло 1022.7 1019.7
З 4-6 {9} н/о 8/8 +11.4 +7.9 79 +9 +9 тепло 1023.0 1019.9
З 4-5 {6} 45 км 1/1 +10.9 +7.8 81 +9 +9 тепло 1023.3 1020.2
З 4-5 {5} н/о 10/6 +9.6 +7.6 87 +7 +7 тепло 1023.5 1020.4
З 3-4 {5} н/о н/о +9.7 +7.8 88 +7 +7 тепло 1023.9 1020.8
З 3-4 {5} 29 км 10/10 +9.8 +7.9 88 +8 +8 тепло 1024.1 1021.0
З 3-3 {5} н/о 10/10 +8.9 +7.4 90 +7 +7 тепло 1024.3 1021.2
З 3-4 {4} н/о 10/10 +9.0 +6.6 85 +6 +6 тепло 1024.2 1021.1
З 2-4 {5} 29 км 10/10 +9.0 +6.3 83 +7 +7 по сезону 1024.9 1021.8 +8.5 +17.4
З 4-6 {6} н/о 4/4 +9.5 +5.7 77 +7 +7 тепло 1025.3 1022.2
З 3-4 {6} н/о 1/1 +10.6 +4.9 68 +9 +11 тепло 1025.4 1022.3
З 4-5 {5} 50 км 9/9 +10.9 +3.0 58 +9 +9 по сезону 1025.3 1022.2 +12.8
З 4-6 {6} н/о 4/4 +12.1 +3.8 57 +10 +10 тепло 1025.0 1021.9
З 4-7 {7} н/о 4/4 +12.7 +1.6 47 +11 +17 тепло 1024.7 1021.6
З 5-7 {8} 65 км 3/3 +13.4 +2.5 48 +12 +17 по сезону 1023.9 1020.9
З 4-7 {8} н/о 10/10 +14.2 +1.0 41 +13 +13 тепло 1023.2 1020.2
З 5-8 {8} н/о 10/4 1500 м +14.5 +1.8 42 +13 +16 тепло 1022.3 1019.2
З 7-10 {11} 60 км 6/6 1500 м +13.7 +2.4 46 +12 +12 по сезону 1021.4 1018.4
З 6-8 {9} н/о 10/9 1000 м +13.5 +2.3 47 +12 +12 тепло 1020.9 1017.9
З 6-9 {9} н/о 10/3 1500 м +13.0 +3.1 51 +11 +11 тепло 1020.2 1017.2
З 6-9 {10} 60 км 10/10 1260 м +12.4 +3.3 54 +10 +10 по сезону 1019.7 1016.7 +14.9
З 6-8 {9} н/о 9/3 1500 м +11.9 +2.9 54 +10 +10 тепло 1019.4 1016.4
З 7-10 {10} н/о ясно +10.2 +2.4 58 +7 +7 по сезону 1019.5 1016.4
З 6-8 {11} 60 км ясно +9.1 +2.2 62 +6 +6 по сезону 1019.0 1015.9 +14.9
З 6-9 {9} н/о н/о +8.6 +2.5 65 +5 +5 по сезону 1018.1 1015.0
ЮЗ 6-8 {9} н/о н/о +8.0 +3.3 72 +4 +4 по сезону 1017.3 1014.3
ЮЗ 7-9 {9} 60 км ясно +7.6 +3.4 75 +3 +3 по сезону 1016.5 1013.4
ЮЗ 7-8 {9} н/о н/о +7.8 +4.3 79 +3 +3 по сезону 1015.5 1012.4
ЮЗ 5-7 {9} н/о н/о +7.5 +4.4 81 +4 +4 тепло 1014.3 1011.2
ЮЗ 8-10 {10} 45 км 10/10 1200 м +8.4 +4.6 77 +4 +4 по сезону 1012.8 1009.7
ЮЗ 8-12 {13} н/о н/о +8.5 +5.0 79 +4 +4 по сезону 1011.1 1008.1
ЮЗ 8-11 {12} н/о н/о +8.9 +5.5 79 +5 +5 тепло 1009.7 1006.7
ЮЗ 9-12 {13} 45 км 10/10 600 м +9.5 +5.9 78 +5 +5 по сезону 1007.9 1004.9 +7.4 +12.5
ЮЗ 10-15 {15} н/о н/о +10.0 +5.4 73 +6 +6 тепло 1006.7 1003.6
ЮЗ 11-17 {20} н/о н/о +10.4 +6.8 78 +6 +6 тепло 1004.6 1001.6
З 12-17 {21} 6000 м сильн. дождь 10/10 360 м +7.7 +5.0 83 +2 +2 холодно 1005.5 1002.4 +11.0 3
З 8-11 {12} н/о н/о +9.2 +6.2 81 +5 +5 по сезону 1005.2 1002.1 0.2
З 12-19 {19} н/о н/о +11.1 +0.8 49 +7 +7 тепло 1005.2 1002.2
З 11-19 {20} 55 км 8/8 1440 м +11.8 +0.3 45 +8 +8 прохладно 1005.8 1002.8
З 10-16 {21} н/о н/о +12.1 -1.3 39 +9 +9 по сезону 1006.1 1003.1
З 10-17 {19} н/о н/о +12.5 +0.2 43 +9 +10 по сезону 1006.6 1003.6
З 10-15 {20} 60 км 10/10 1500 м +12.5 0.0 42 +9 +9 по сезону 1006.8 1003.8
З 8-12 {20} н/о н/о +10.1 +3.4 63 +6 +6 по сезону 1007.6 1004.5 0.2
З 8-13 {16} н/о н/о +9.9 +1.7 57 +6 +6 по сезону 1007.8 1004.8
З 7-12 {12} 50 км 10/10 1200 м +10.3 +1.1 53 +7 +7 по сезону 1008.1 1005.1 +12.8
З 9-15 {17} н/о н/о +8.7 +0.2 55 +4 +4 прохладно 1008.8 1005.8
З 9-14 {14} н/о н/о +8.0 +1.1 62 +3 +3 по сезону 1009.1 1006.0
З 8-12 {13} 65 км ясно +7.4 +1.0 64 +3 +3 прохладно 1008.9 1005.9 +12.8 0.4
З 9-13 {15} н/о н/о +8.5 +1.3 61 +4 +4 по сезону 1009.0 1005.9
З 7-11 {15} н/о н/о +8.4 +2.7 67 +4 +4 по сезону 1009.1 1006.1
З 8-14 {14} 45 км в посл. час дождь 10/10 840 м +8.1 +3.5 73 +4 +4 по сезону 1008.7 1005.7 0.4
З 8-13 {15} н/о н/о +8.6 +3.8 72 +4 +4 по сезону 1008.6 1005.5
З 8-11 {13} н/о н/о +8.8 +3.8 71 +5 +5 тепло 1009.0 1005.9
З 6-11 {12} 45 км 10/10 750 м +8.9 +4.1 72 +5 +5 по сезону 1009.4 1006.4
З 6-9 {12} н/о н/о +8.7 +4.4 74 +5 +5 тепло 1009.8 1006.7
З 6-9 {10} н/о н/о +8.7 +4.4 74 +5 +5 тепло 1010.4 1007.3
З 5-8 {11} 40 км в посл. час дождь 8/8 720 м +8.9 +4.6 74 +6 +6 по сезону 1010.9 1007.9 +7.2 +10.3 3.8
З 7-12 {12} 40 км 6/6 630 м +9.4 +5.1 74 +6 +6 тепло 1011.5 1008.4
СЗ 6-10 {13} 35 км 6/6 630 м +9.7 +4.9 72 +6 +7 тепло 1011.9 1008.9
СЗ 8-13 {14} 30 км 10/10 700 м +11.0 +4.8 66 +8 +8 по сезону 1012.3 1009.3 +11.1 0.4
СЗ 6-10 {12} н/о н/о +10.3 +5.6 73 +7 +7 тепло 1013.1 1010.1
СЗ 7-10 {11} н/о н/о +11.7 +4.2 60 +9 +9 тепло 1013.2 1010.2
СЗ 5-9 {14} н/о н/о +12.7 +5.3 61 +11 +14 по сезону 1013.2 1010.2
СЗ 4 н/о н/о +11.7 +5.1 64 +10 +14 тепло 1013.7 1010.6
СЗ 5-9 {12} н/о н/о +11.0 +4.0 62 +8 +8 тепло 1013.7 1010.7
С 7-13 {13} 50 км слаб. дождь 10/10 1300 м +11.1 +2.5 55 +8 +8 по сезону 1014.3 1011.2
З 3-4 {12} н/о н/о +11.3 +3.7 59 +10 +10 тепло 1014.3 1011.3 0.6
З 4-5 {6} н/о н/о +12.0 +3.4 56 +10 +11 тепло 1014.4 1011.4
З 3-4 {11} 35 км дождь 10/10 960 м +8.0 +5.5 84 +6 +6 по сезону 1015.6 1012.5 +13.8 5
СЗ 4-7 {8} н/о н/о +8.2 +4.9 80 +5 +5 по сезону 1015.9 1012.8
СЗ 2-4 {7} н/о н/о +7.7 +5.5 86 +6 +6 по сезону 1016.8 1013.7
С 3-4 {4} 65 км слаб. морось 10/10 1230 м +7.8 +5.0 82 +5 +5 по сезону 1017.1 1014.0 +13.8 7
З 2-4 {5} н/о н/о +7.3 +4.1 80 +5 +5 по сезону 1017.6 1014.5
З 1-2 {4} н/о н/о +7.1 +4.5 84 +6 +6 тепло 1017.7 1014.6
СЗ 2-3 {3} 40 км 4/4 +6.0 +4.5 90 +4 +4 по сезону 1017.6 1014.5
З 2-4 {4} н/о н/о +4.8 +3.3 90 +2 +2 по сезону 1017.4 1014.2
З 4-5 {5} н/о н/о +4.4 +3.2 92 0 0 тепло 1017.0 1013.8
З 3-4 {4} 35 км ясно +4.0 +2.7 91 0 0 по сезону 1016.8 1013.6
З 3-5 {5} н/о н/о +5.3 +2.8 84 +2 +2 по сезону 1016.6 1013.5
З 4-5 {6} н/о н/о +5.4 +2.1 79 +2 +2 тепло 1016.6 1013.5
З 4-5 {6} 45 км ясно +5.2 +1.9 79 +1 +2 по сезону 1016.7 1013.6 +3.9 +8.6 7.4
З 5-7 {8} н/о н/о +6.2 +2.4 77 +2 +3 по сезону 1016.7 1013.6
З 4-7 {9} н/о н/о +6.9 +3.4 78 +3 +3 тепло 1016.6 1013.6
СЗ 5-8 {9} 60 км 8/8 720 м +8.0 +2.5 68 +5 +6 по сезону 1016.4 1013.4 +8.4
СЗ 4-9 {10} н/о н/о +9.7 +3.1 63 +7 +7 тепло 1016.0 1012.9
СЗ 5-8 {9} н/о н/о +10.1 +1.5 55 +7 +7 тепло 1015.8 1012.8
З 6-8 {11} 65 км 5/5 1140 м +11.1 +1.0 50 +9 +11 по сезону 1015.6 1012.6
СЗ 6-11 {11} н/о н/о +11.9 +0.6 46 +10 +10 тепло 1015.4 1012.4
СЗ 6-11 {11} н/о н/о +11.5 -1.6 40 +9 +10 тепло 1015.1 1012.0
СЗ 6-11 {11} 60 км 10/10 1500 м +11.4 -1.8 40 +9 +9 по сезону 1014.8 1011.7
СЗ 6-10 {10} 65 км 10/10 1500 м +11.1 -0.6 44 +8 +8 тепло 1014.7 1011.6
З 6-9 {9} 65 км 10/10 1500 м +11.8 -1.1 41 +10 +10 тепло 1014.4 1011.3
СЗ 6-11 {11} 65 км 10/10 1500 м +11.1 -1.3 42 +9 +9 по сезону 1014.6 1011.5 +12.4
С 5-9 {11} н/о н/о +9.3 +1.4 58 +6 +6 по сезону 1015.5 1012.4
СЗ 5-9 {10} н/о н/о +8.5 +1.3 61 +5 +5 тепло 1016.4 1013.3
СЗ 2-4 {7} >70 км ясно +6.5 +1.7 71 +4 +4 по сезону 1017.1 1014.0 +12.4
СЗ 3-5 {6} н/о н/о +6.6 +2.0 72 +4 +4 по сезону 1017.4 1014.3
СЗ 5-8 {8} >70 км 10/10 1080 м +6.9 +1.9 70 +3 +3 тепло 1018.0 1014.9
СЗ 5-8 {9} 65 км в посл. час дождь 10/10 660 м +6.5 +2.7 77 +3 +3 по сезону 1018.6 1015.5
С 4-8 {8} н/о н/о +6.4 +3.7 83 +3 +3 тепло 1019.3 1016.2
С 4-7 {7} н/о н/о +6.4 +3.5 82 +3 +3 тепло 1019.8 1016.7
С 3-6 {8} 50 км 4/4 420 м +5.6 +3.2 85 +2 +2 по сезону 1020.6 1017.5
С 3-5 {6} н/о н/о +4.8 +2.9 87 +1 +1 по сезону 1021.1 1018.0
С 3-6 {6} н/о н/о +4.8 +3.0 88 +2 +2 тепло 1021.9 1018.8
С 3-5 {6} 35 км ясно +5.0 +3.2 88 +2 +2 по сезону 1022.7 1019.5 +4.6 +11.1
С 3-5 {6} н/о н/о +6.3 +3.7 83 +3 +6 тепло 1023.2 1020.1
С 3-5 {5} н/о н/о +8.2 +3.8 74 +6 +8 тепло 1023.8 1020.7
СВ 2-4 {6} 60 км 1/1 870 м +9.2 +3.0 65 +8 +15 тепло 1024.4 1021.3 +10.0
СЗ 3-4 {5} н/о н/о +9.4 +1.2 57 +8 +12 тепло 1024.2 1021.1
З 2-4 {5} н/о н/о +11.5 +2.2 53 +11 +22 опасность простуды 1024.1 1021.0
ЮЗ 4-6 {7} 60 км ясно +12.8 +2.4 49 +11 +21 опасность простуды 1023.6 1020.5
З 2 н/о н/о +13.5 +1.9 45 +13 +13 тепло 1023.1 1020.0
З 3 н/о н/о +14.1 +1.1 41 +14 +14 тепло 1022.6 1019.5
З 6-9 {9} 65 км 10/10 +14.0 +0.8 41 +12 +12 тепло 1021.9 1018.9
З 6-9 {11} н/о н/о +13.7 +1.3 43 +12 +12 тепло 1021.5 1018.5
З 6-9 {11} н/о н/о +13.2 +2.2 47 +11 +11 тепло 1020.9 1017.9
З 7-10 {10} >70 км 10/10 1500 м +12.7 -2.7 34 +10 +10 тепло 1020.7 1017.7 +14.4
З 6-9 {11} н/о н/о +10.9 +1.0 50 +8 +8 тепло 1020.8 1017.7
З 6-9 {11} н/о н/о +10.8 +0.9 50 +8 +8 тепло 1020.6 1017.5
З 6-9 {12} 17 км слаб. дождь 10/10 1140 м +9.1 +3.4 67 +6 +6 по сезону 1020.3 1017.2 +14.4
З 6-8 {10} н/о н/о +7.9 +5.0 82 +4 +4 по сезону 1019.8 1016.7 0.6
ЮЗ 6-8 {10} н/о н/о +7.9 +6.2 89 +4 +4 тепло 1019.1 1016.0
ЮЗ 6-8 {9} 40 км в посл. час дождь 10/10 600 м +8.2 +6.7 90 +4 +4 по сезону 1018.3 1015.2
ЮЗ 6-7 {8} 40 км 10/10 540 м +8.6 +7.2 91 +5 +5 тепло 1017.8 1014.7
ЮЗ 5-7 {8} н/о н/о +9.2 +7.5 89 +6 +6 тепло 1017.1 1014.1
З 5-8 {9} 35 км 10/10 540 м +9.8 +7.7 87 +7 +7 тепло 1016.7 1013.7
З 5-7 {9} 35 км 10/10 500 м +10.3 +7.6 83 +7 +7 тепло 1016.5 1013.4
З 6-8 {9} 35 км 10/10 540 м +10.5 +7.4 81 +7 +7 тепло 1015.8 1012.8
З 6-8 {10} 35 км 4/4 1080 м +10.5 +7.4 81 +7 +7 тепло 1016.0 1012.9 +7.9 +12.8 0.6
З 5-7 {8} н/о н/о +11.1 +7.6 79 +8 +8 тепло 1016.1 1013.1
З 5-10 {10} н/о н/о +11.4 +7.3 76 +9 +9 тепло 1016.5 1013.4
З 5-8 {10} 60 км в посл. час морось 10/10 700 м +12.1 +7.1 71 +10 +10 тепло 1016.1 1013.0 +12.2 0.6
З 7-11 {11} >70 км 10/10 800 м +12.9 +7.0 67 +10 +10 тепло 1016.2 1013.2
СЗ 6-9 {12} >70 км слаб. дождь 10/10 630 м +12.6 +8.3 75 +10 +10 тепло 1016.5 1013.5
З 7-11 {11} 65 км в посл. час дождь 10/10 240 м +12.3 +10.1 86 +9 +9 тепло 1016.8 1013.7 2
С 5-10 {12} 60 км 3/3 840 м +13.5 +6.0 60 +12 +15 тепло 1017.6 1014.6
С 0-9 {10} н/о н/о +11.6 +4.8 63 +11 +11 тепло 1018.4 1015.4
С 0-8 {9} н/о н/о +11.7 +5.1 64 +11 +11 тепло 1019.3 1016.3
СВ 0-6 {7} н/о н/о +10.6 +4.6 66 +10 +10 тепло 1020.2 1017.1 +16.7
Местоположение метеостанции Лондон (Великобритания): широта 51.48 долгота -0.45 высота над уровнем моря 25 м.
В архиве по умолчанию представлена погода в Лондоне за последнюю неделю. Архивные данные за месяц целиком и за предыдущие месяцы, начиная с января 2011 года, Вы можете получить, выбрав интересующий диапазон дат из раскрывающегося списка и нажав кнопку "Найти!".
*Определитесь, кто Вы:
Внимание! Время в таблицах - всемирное. Для получения местного времени необходимо прибавить поправку, которая равна 0 ч.
Некоторые строки с данными для отдельных станций могут быть выделены курсивом. Это означает, что фактические данные отсутствуют по различным причинам, а приведенные значения являются расчетными модельными данными для данного пункта наблюдений.
Смотрите также архив погоды в соседних городах и на ближайших метеорологических станциях:
Партнеры нашего сайта:
Парфюмерия бай
парфюмерия бай
perfumer.by

     
Пояснения к столбцам:
  • Ветер - указаны скорость ветра в м/с - средняя за 10 мин, порывы в срок и между сроками (в фигурных скобках) и направление, откуда дует ветер: С - северный,
  • СВ - северо-восточный, В - восточный, ЮВ - юго-восточный, Ю - южный, ЮЗ - юго-западный, З - западный, СЗ - северо-западный.
  • Видимость - горизонтальная дальность видимости в метрах или километрах. При видимости от 1 до 10 км при отсутствии осадков обычно наблюдается дымка, при ухудшении видимости до 1 км и менее - туман. В сухую погоду видимость может ухудшаться дымом, пылью или мглою.
  • Явления - указаны атмосферные явления, наблюдавшиеся в срок или в последний час перед сроком; фигурными скобками обозначены явления, наблюдавшиеся между сроками (за 1-3 часа до срока); квадратными скобками обозначены град или гололедные отложения с указанием их диаметра в мм.
  • Облачность - указаны через наклонную черту общая и нижняя облачность в баллах и высота нижней границы облаков в метрах; квадратными скобками обозначены формы облаков: Ci - перистые, Cs - перисто-слоистые, Cc - перисто-кучевые, Ac - высококучевые, As - высокослоистые, Sc - слоисто-кучевые, Ns - слоисто-дождевые, Cu - кучевые, Cb - кучево-дождевые. Подробнее классификацию облаков см. в Атласе облаков (PDF).
  • T - Температура воздуха - температура, измеренная на высоте 2 м над землей.
  • Td - Температура точки росы - температура, при понижении до которой содержащийся в воздухе водяной пар достигнет насыщения.
  • f - Относительная влажность воздуха - влажноcть воздуха, измеренная на высоте 2 м над землей.
  • Te - Эффективная температура - температура, которую ощущает одетый по сезону человек в тени. Характеристика душности погоды. При расчете учитывается влияние влажности воздуха и скорости ветра на теплоощущения человека.
  • Tes - Эффективная температура на солнце - температура, которую ощущает человек, с поправкой на солнечный нагрев. Характеристика знойности погоды. Зависит от высоты солнца над горизонтом, облачности и скорости ветра. Ночью, в пасмурную погоду, а также при ветре 12 м/с и более поправка равна нулю.
  • P - Атмосферное давление - приведенное к уровню моря атмосферное давление.
  • Po - Атмосферное давление - измеренное на уровне метеостанции атмосферное давление.
  • Tmin - Минимальная температура - минимум температуры воздуха на высоте 2 м над землей.
  • Tmax - Максимальная температура - максимум температуры воздуха на высоте 2 м над землей.
  • R - Количество осадков - Количество выпавших осадков за период времени, мм. При наведении курсора мыши на число - период времени, за который выпало указанное количество осадков.
  • R24 - Количество осадков - Количество выпавших осадков за 24 часа, мм.
  • S - Снежный покров - Высота снежного покрова, см. При наведении курсора мыши на число - состояние снежного покрова и степень покрытия местности в баллах.